Regional Weather Roundup
Issued by NWS

Home | Current Version | Previous Version | Graphics & Text | Print | Product List | Glossary On
Versions: 1 2 3 4 5 6 7 8 9 10 11 12 13 14 15 16 17 18 19 20 21 22 23 24 25 26 27 28 29 30 31 32 33 34 35 36 37 38 39 40 41 42 43 44 45 46 47 48 49 50
000
ASUS43 KTOP 202159
RWRKS

WEATHER ROUNDUP FOR KANSAS
NATIONAL WEATHER SERVICE GOODLAND KS
400 PM CST THU NOV 20 2014

NOTE:  "FAIR" INDICATES FEW OR NO CLOUDS BELOW 12,000 FEET WITH NO
SIGNIFICANT WEATHER AND/OR OBSTRUCTIONS TO VISIBILITY.

KSZ001>006-013>018-027>032-041>047-202300-
NORTHWEST KANSAS

CITY           SKY/WX    TMP DP  RH WIND       PRES   REMARKS
GOODLAND       SUNNY     54  17  23 E6        29.99S
HAYS           SUNNY     48  25  40 S7        30.05R
HILL CITY      SUNNY     51  26  37 E7        30.03S
RUSSELL        SUNNY     49  24  37 S7        30.05R
$$

KSZ061>065-074>080-084>089-202300-
SOUTHWEST KANSAS

CITY           SKY/WX    TMP DP  RH WIND       PRES   REMARKS
DODGE CITY     MOSUNNY   53  24  32 S8        30.01S
ELKHART          N/A     51  27  39 E8          N/A
GARDEN CITY    MOSUNNY   54  27  35 SE7       29.99S
GREAT BEND     MOSUNNY   46  25  42 E8        30.06R
LIBERAL        MOSUNNY   54  28  37 E3        30.01R
$$

KSZ066>073-081>083-090>101-202300-
SOUTHEAST KANSAS

CITY           SKY/WX    TMP DP  RH WIND       PRES   REMARKS
CHANUTE        SUNNY     46  24  42 NE12      30.13R
COFFEYVILLE    SUNNY     50  27  40 NE13      30.10F
HUTCHINSON     SUNNY     48  25  40 E8        30.08R
MEDICINE LODGE   N/A     50  29  44 E7        30.04F
NEWTON         SUNNY     46  21  36 E10       30.11S
PARSONS        SUNNY     50  25  37 E8        30.12S
WICHITA INTL   PTSUNNY   51  25  36 E8        30.07S
WICHITA JABRA  SUNNY     48  24  39 E9        30.08S
WINFIELD       SUNNY     52  26  36 E9        30.07S
$$

KSZ007>012-019>026-033>040-048>060-102>105-202300-
NORTHEAST KANSAS

CITY           SKY/WX    TMP DP  RH WIND       PRES   REMARKS
CONCORDIA      SUNNY     40  20  44 E9        30.12R
EMPORIA        SUNNY     43  20  39 E10       30.13S
LAWRENCE       CLEAR     39  19  44 E7        30.18F
MANHATTAN      SUNNY     41  20  43 E9        30.15R
OLATHE IND     CLEAR     39  19  44 NE6       30.18S
OLATHE EXE     CLEAR     40  19  43 NE3       30.17S
SALINA         SUNNY     48  21  34 E8        30.11S
TOPEKA BILLARD SUNNY     41  19  41 E7        30.18S
TOPEKA FORBES  SUNNY     41  19  41 E6        30.16S
$$



USA.gov is the U.S. government's official web portal to all federal, state and local government web resources and services.